Regional Weather Roundup
Issued by NWS

Home | Current Version | Previous Version | Text Only | Print | Product List | Glossary On
Versions: 1 2 3 4 5 6 7 8 9 10 11 12 13 14 15 16 17 18 19 20 21 22 23 24 25 26 27 28 29 30 31 32 33 34 35 36 37 38 39 40 41 42 43 44 45 46 47 48 49 50
000
ASCA42 TJSJ 141510
RWRPR
PUERTO RICO/U.S. VIRGIN ISLANDS HOURLY WEATHER ROUNDUP
NATIONAL WEATHER SERVICE SAN JUAN PR
1100 AM AST THU DEC 14 2017

PRZ001>002-007>008-010-141600-
PUERTO RICO

CITY           SKY/WX    TMP DP  RH WIND       PRES   REMARKS
SAN JUAN LMM   MOSUNNY   84  72  65 MISG      30.06F
AGUADILLA      SUNNY     82  70  65 CALM      30.08S
$$

VIZ001>002-141600-
U.S. VIRGIN ISLANDS

CITY           SKY/WX    TMP DP  RH WIND       PRES   REMARKS
CHARLOTTE AMA  MOSUNNY   84  72  65 SE12      30.06S
CHRISTIANSTED  MOSUNNY   84  72  65 E10       30.07S
$$

HOURLY WEATHER ROUNDUP FOR THE NEWS MEDIA

CITY           SKY/WX    TMP DP  RH WIND       PRES   REMARKS
ORLANDO        SUNNY     62  52  69 S12       30.07R
NEW YORK       PTSUNNY   27  24  89 N14       29.70R WCI  16
NEWARK         CLOUDY    28  22  78 N13       29.70R WCI  17
CHICAGO        PTSUNNY   20   9  62 N13       30.06R WCI   7
HARTFORD       LGT SNOW  22  20  92 N5        29.63R FOG     WCI  16
BOSTON         PTSUNNY   25   9  50 NW9       29.63R WCI  15
DALLAS         MOSUNNY   51  29  42 N8        30.03R
PHILADELPHIA   MOSUNNY   32  23  69 NW18G28   29.72R WCI  20
LOS ANGELES    PTCLDY    57  37  47 CALM      30.00R
WASHINGTON DC  PTSUNNY   39  23  52 NW28G36   29.75R WCI  28


USA.gov is the U.S. government's official web portal to all federal, state and local government web resources and services.